Location: Bronschhofen
(47.4788°N, 9.0353°E)
Time: 19:36:01
(UTC+00:00)

Okean 2 - Pass Details

Date: 20 May 2022
Orbit: 558 x 573 km, 82.5° (Epoch: 06 July)

Event Time Altitude Azimuth Distance (km) Brightness Sun altitude
Exits shadow 00:39:11 50° 246° (WSW) 719 3.6 -20.3°
Maximum altitude 00:39:47 56° 282° (WNW) 671 3.6 -20.3°
Drops below altitude 10° 00:43:50 10° 1° (N) 1,861 7.1 -20.0°
Sets 00:46:03 0° 6° (N) 2,764 8.3 -19.9°
